Location: Unspecified
(52.4292°N, 19.3359°E)
Time: 23:31:34
(UTC+02:00)

A-11 Canister half - Pass Details

Date: 19 May 2024
Orbit: 1524 x 1683 km, 47.3° (Epoch: 19 June)

Event Time Altitude Azimuth Distance (km) Brightness Sun altitude
Rises 21:48:18 0° 205° (SSW) 4,681 11.3 -8.6°
Reaches altitude 10° 21:51:47 10° 195° (SSW) 3,716 10.7 -8.9°
Maximum altitude 21:59:31 30° 139° (SE) 2,526 9.6 -9.7°
Drops below altitude 10° 22:07:28 10° 83° (E) 3,824 10.8 -10.4°
Sets 22:11:05 0° 74° (ENE) 4,837 11.4 -10.7°
